[[{"header":{"parameterUnit":"m.s-1","parameterCategory":1,"la1":30.2991,"la2":30.254,"lo1":-89.0895,"lo2":-89.0444,"dy":0.0017,"dx":0.0017,"nx":28,"ny":28,"refTime":"2024-04-25T03:00:00:Z","depth":0,"parameterNumber":2,"parameterNumberName":"U-component_of_WINDS"},"data":[0,0,0,0,0,0,0,0,0,0,0,0,0,0,0,0,0,0,0,0,0,0,0,0,0,0,0,0,0,0,0,0,0,0,0,0,0,0,0,0,0,0,0,0,0,0,0,0,0,0,0,0,0,0,0,0,0,0,-0.2928,-0.2927,0,-0.2818,-0.2817,-0.2815,-0.2752,-0.2752,-0.2751,-0.2751,-0.2639,-0.2636,-0.2634,0,0,0,0,0,0,0,0,0,0,0,0,0,-0.3085,-0.3083,-0.2928,-0.2927,-0.2925,-0.2818,-0.2817,-0.2815,-0.2752,-0.2751,-0.2751,-0.2751,-0.264,-0.2637,-0.2633,0,0,0,0,0,0,0,0,0,0,0,0,0,-0.3,-0.3082,-0.2928,-0.2881,-0.2876,-0.2818,-0.2817,-0.2815,-0.2752,-0.2751,-0.2751,-0.2751,-0.2641,-0.2637,-0.2633,-0.2615,0,0,-0.262,-0.2618,0,0,0,0,0,0,0,0,-0.3005,-0.2995,-0.2889,-0.2884,-0.2878,-0.2798,-0.2831,-0.2748,-0.2752,-0.2799,-0.2751,-0.2751,-0.2692,-0.2684,-0.2664,-0.261,-0.2605,-0.262,-0.2617,-0.2616,-0.2614,0,0,0,0,0,0,0,-0.3011,-0.2999,-0.2885,-0.2888,-0.2881,-0.2866,-0.2853,-0.2815,-0.2749,-0.2795,-0.279,-0.2778,-0.2689,-0.2668,-0.2661,-0.2603,-0.262,-0.2616,-0.2614,-0.2612,-0.2529,-0.2529,0,0,0,0,0,0,-0.3025,-0.3004,-0.2888,-0.2881,-0.2942,-0.2863,-0.2849,-0.2824,-0.2749,-0.2737,-0.2778,-0.2775,-0.2675,-0.2666,-0.2657,-0.2631,-0.2616,-0.2612,-0.2609,-0.2529,-0.2529,-0.2529,0,0,0,0,0,0,-0.3028,-0.3015,-0.2892,-0.2941,-0.2925,-0.2861,-0.2833,-0.2822,-0.2801,-0.2737,-0.2725,-0.2769,-0.2675,-0.2663,-0.2626,-0.2626,-0.261,-0.2606,-0.2528,-0.2529,-0.2529,-0.258,0,0,0,0,0,0,-0.3033,-0.3016,-0.3009,-0.2942,-0.2922,-0.2863,-0.2833,-0.282,-0.2794,-0.2789,-0.2725,-0.2714,-0.2674,-0.2632,-0.2622,-0.262,-0.2603,-0.2528,-0.2528,-0.2529,-0.2578,-0.2582,-0.2585,0,0,0,0,0,-0.3039,-0.3027,-0.3008,-0.2995,-0.2911,-0.2863,-0.2852,-0.2806,-0.2794,-0.2786,-0.2745,-0.2716,-0.2628,-0.2629,-0.2617,-0.2614,-0.2528,-0.2528,-0.2529,-0.2576,-0.2581,-0.2585,0,0,0,0,0,0,-0.3096,-0.3018,-0.2996,-0.2962,-0.292,-0.2853,-0.2841,-0.2813,-0.2773,-0.277,-0.2715,-0.2701,-0.267,-0.2638,-0.2641,-0.2593,-0.2575,-0.2573,-0.2615,-0.2619,-0.2623,-0.2631,-0.2599,0,0,0,0,0,-0.3105,-0.3072,-0.3005,-0.2982,-0.2962,-0.2905,-0.2883,-0.2851,-0.2805,-0.2787,-0.2743,-0.2699,-0.2662,-0.2639,-0.2601,-0.2573,-0.2558,-0.2565,-0.2569,-0.2572,-0.2571,-0.2555,-0.2557,-0.2531,-0.2531,-0.2531,0,0,-0.3123,-0.3076,-0.3058,-0.2993,-0.2956,-0.2924,-0.2891,-0.2858,-0.2834,-0.2782,-0.2744,-0.2711,-0.2659,-0.2627,-0.261,-0.2599,-0.2575,-0.2573,-0.2576,-0.2573,-0.2556,-0.2558,-0.256,-0.2531,-0.2531,-0.2531,0,0,-0.3139,-0.3099,-0.3076,-0.304,-0.2985,-0.2947,-0.2942,-0.2879,-0.2855,-0.2816,-0.2777,-0.2747,-0.2684,-0.2649,-0.2623,-0.2626,-0.2598,-0.2615,-0.2635,-0.262,-0.2622,-0.2623,-0.2625,-0.2626,-0.2615,-0.2615,-0.2615,0,-0.3168,-0.3117,-0.3068,-0.3037,-0.301,-0.2961,-0.2938,-0.2905,-0.2841,-0.2824,-0.2812,-0.2732,-0.2694,-0.2653,-0.2654,-0.2634,-0.2627,-0.2622,-0.2625,-0.2626,-0.2627,-0.2628,-0.2629,-0.2617,-0.2617,-0.2617,-0.2616,0,-0.3156,-0.3122,-0.311,-0.3049,-0.302,-0.2993,-0.294,-0.2917,-0.2888,-0.2852,-0.2814,-0.2766,-0.2718,-0.2706,-0.2677,-0.2661,-0.2656,-0.2636,-0.2616,-0.2633,-0.2633,-0.2633,-0.2621,-0.262,-0.2619,-0.2618,0,0,-0.3205,-0.3117,-0.3114,-0.3086,-0.3022,-0.2994,-0.2966,-0.2918,-0.29,-0.2857,-0.2833,-0.278,-0.2761,-0.2732,-0.2699,-0.2685,-0.2692,-0.2666,-0.2664,-0.2673,-0.2672,-0.2688,-0.2689,-0.2673,-0.2672,-0.2672,-0.2677,0,-0.3212,-0.3158,-0.3113,-0.3076,-0.3044,-0.2998,-0.2973,-0.2931,-0.2897,-0.2865,-0.2827,-0.2791,-0.2768,-0.275,-0.2735,-0.2694,-0.2691,-0.2693,-0.2649,-0.2648,-0.2664,-0.2689,-0.2706,-0.2712,-0.2676,-0.2676,-0.2676,0,-0.3213,-0.3173,-0.3132,-0.3072,-0.3057,-0.3035,-0.2989,-0.2959,-0.2911,-0.2887,-0.2854,-0.282,-0.2788,-0.2772,-0.2727,-0.273,-0.2709,-0.2687,-0.2686,-0.2681,-0.2664,-0.2685,-0.2713,-0.2714,-0.2676,-0.2676,-0.2676,0,-0.3254,-0.3189,-0.3156,-0.3134,-0.3062,-0.3049,-0.3018,-0.297,-0.2945,-0.2904,-0.2887,-0.2843,-0.282,-0.2787,-0.2742,-0.2734,-0.2703,-0.2682,-0.2682,-0.2683,-0.2678,-0.2679,-0.2704,-0.2664,-0.2664,-0.2664,-0.2664,0,-0.3267,-0.3245,-0.3174,-0.3154,-0.3128,-0.3076,-0.3052,-0.3017,-0.2975,-0.2948,-0.2905,-0.2881,-0.2822,-0.2791,-0.2755,-0.2725,-0.2714,-0.2694,-0.2685,-0.2698,-0.2701,-0.2684,-0.2683,-0.2664,-0.2664,-0.2664,-0.2664,0,-0.3309,-0.326,-0.3222,-0.3157,-0.3141,-0.3124,-0.3069,-0.3048,-0.3012,-0.2978,-0.2967,-0.291,-0.2871,-0.2823,-0.2768,-0.2744,-0.2718,-0.2703,-0.2734,-0.2729,-0.2732,-0.2732,-0.2747,-0.2746,-0.2707,-0.2708,-0.2708,0,-0.332,-0.3302,-0.3235,-0.3214,-0.3185,-0.3151,-0.3125,-0.3074,-0.3049,-0.2993,-0.2979,-0.2937,-0.2901,-0.2841,-0.2795,-0.2753,-0.2738,-0.2746,-0.2731,-0.2746,-0.2739,-0.2741,-0.2739,-0.275,-0.2751,-0.2751,-0.2752,0,-0.3347,-0.3324,-0.3288,-0.3243,-0.3213,-0.3176,-0.3137,-0.3122,-0.3063,-0.3037,-0.2997,-0.2968,-0.2913,-0.2872,-0.2825,-0.2794,-0.2763,-0.2756,-0.2754,-0.2768,-0.2787,-0.2777,-0.2745,-0.2756,-0.2756,-0.2756,-0.2755,-0.2755,-0.3374,-0.3355,-0.3306,-0.3267,-0.3232,-0.3197,-0.3174,-0.3135,-0.31,-0.3051,-0.3023,-0.2984,-0.2937,-0.287,-0.284,-0.2809,-0.2798,-0.2795,-0.2794,-0.2794,-0.2799,-0.2791,-0.28,-0.28,-0.28,-0.28,-0.28,0,-0.3399,-0.3365,-0.3329,-0.3276,-0.3246,-0.3219,-0.3175,-0.3151,-0.3117,-0.3076,-0.3041,-0.2995,-0.2955,-0.2906,-0.2863,-0.2847,-0.2832,-0.2838,-0.2839,-0.2832,-0.2811,-0.2817,-0.2851,-0.2851,-0.2851,-0.2851,-0.2851,-0.2851,-0.3408,-0.3376,-0.3347,-0.3297,-0.3263,-0.3224,-0.3201,-0.3169,-0.3135,-0.3086,-0.3052,-0.302,-0.2976,-0.2929,-0.2892,-0.2878,-0.2864,-0.2874,-0.2857,-0.2838,-0.2834,-0.2829,-0.2835,-0.2872,-0.2872,-0.2881,-0.2881,-0.2881]},{"header":{"parameterUnit":"m.s-1","parameterCategory":1,"la1":30.2991,"la2":30.254,"lo1":-89.0895,"lo2":-89.0444,"dy":0.0017,"dx":0.0017,"nx":28,"ny":28,"refTime":"2024-04-25T03:00:00:Z","depth":0,"parameterNumber":3,"parameterNumberName":"V-component_of_WINDS"},"data":[0,0,0,0,0,0,0,0,0,0,0,0,0,0,0,0,0,0,0,0,0,0,0,0,0,0,0,0,0,0,0,0,0,0,0,0,0,0,0,0,0,0,0,0,0,0,0,0,0,0,0,0,0,0,0,0,0,0,3.4715,3.4714,0,3.4681,3.4681,3.468,3.462,3.4618,3.4617,3.4616,3.4583,3.4583,3.4583,0,0,0,0,0,0,0,0,0,0,0,0,0,3.4727,3.4727,3.4715,3.4714,3.4714,3.4681,3.4681,3.468,3.462,3.4618,3.4617,3.4616,3.4583,3.4583,3.4583,0,0,0,0,0,0,0,0,0,0,0,0,0,3.471,3.4727,3.4715,3.468,3.4676,3.4681,3.4681,3.468,3.462,3.4618,3.4616,3.4615,3.4583,3.4583,3.4583,3.462,0,0,3.4584,3.4584,0,0,0,0,0,0,0,0,3.4711,3.471,3.4685,3.4682,3.4678,3.4653,3.4673,3.466,3.462,3.4641,3.4616,3.4614,3.4607,3.4606,3.4603,3.4619,3.4617,3.4584,3.4584,3.4584,3.4584,0,0,0,0,0,0,0,3.4713,3.4711,3.4701,3.4685,3.4681,3.4666,3.4662,3.467,3.4635,3.4639,3.4635,3.4632,3.4605,3.4603,3.4602,3.4617,3.4584,3.4584,3.4584,3.4585,3.4661,3.4663,0,0,0,0,0,0,3.4719,3.4712,3.4702,3.47,3.4691,3.4667,3.4662,3.4663,3.4634,3.4628,3.4633,3.4629,3.4603,3.4602,3.4601,3.4642,3.4584,3.4585,3.4585,3.4659,3.4661,3.4663,0,0,0,0,0,0,3.4719,3.4718,3.4704,3.4705,3.4702,3.4669,3.467,3.4663,3.4661,3.463,3.4623,3.4638,3.4602,3.46,3.4616,3.464,3.4585,3.4585,3.4657,3.466,3.4662,3.4725,0,0,0,0,0,0,3.472,3.4719,3.4732,3.4706,3.4702,3.4719,3.4671,3.4664,3.4661,3.4655,3.4632,3.4626,3.46,3.4616,3.4616,3.4639,3.4585,3.4654,3.4658,3.4661,3.4721,3.473,3.4738,0,0,0,0,0,3.472,3.4752,3.4733,3.4732,3.4718,3.4721,3.4719,3.4688,3.4663,3.4677,3.4657,3.4627,3.4637,3.4618,3.4618,3.4642,3.4653,3.4657,3.4661,3.4717,3.4728,3.4737,0,0,0,0,0,0,3.4782,3.4747,3.4727,3.475,3.4739,3.4711,3.4726,3.4701,3.4696,3.4691,3.4653,3.4648,3.4669,3.4657,3.4635,3.4676,3.464,3.4645,3.4683,3.4693,3.4701,3.4704,3.4586,0,0,0,0,0,3.4798,3.4803,3.4773,3.4796,3.4792,3.476,3.476,3.4737,3.4724,3.4719,3.47,3.4689,3.469,3.4691,3.469,3.4719,3.4713,3.4735,3.4744,3.4751,3.4755,3.477,3.4779,3.4677,3.4677,3.4677,0,0,3.4832,3.4814,3.4819,3.4808,3.4797,3.4803,3.4757,3.4765,3.4769,3.472,3.4734,3.472,3.4705,3.4728,3.4737,3.4718,3.4782,3.4756,3.4762,3.4762,3.4775,3.4785,3.4793,3.468,3.4679,3.4679,0,0,3.4896,3.4883,3.4901,3.4891,3.4874,3.4853,3.4858,3.4833,3.4822,3.4835,3.4799,3.4803,3.4805,3.4796,3.4791,3.4853,3.4825,3.4853,3.4897,3.4912,3.492,3.4927,3.4949,3.4957,3.4858,3.4858,3.4858,0,3.494,3.4948,3.4914,3.4924,3.4921,3.4877,3.4896,3.4887,3.4871,3.487,3.4849,3.4851,3.4837,3.4857,3.4873,3.487,3.4874,3.4856,3.4921,3.4928,3.4934,3.4955,3.4963,3.4861,3.4861,3.4861,3.486,0,3.5003,3.5008,3.5025,3.501,3.5009,3.5023,3.4992,3.4995,3.4973,3.4954,3.4968,3.495,3.4945,3.4948,3.4926,3.4965,3.4954,3.4928,3.4892,3.4948,3.4967,3.4974,3.4866,3.4865,3.4864,3.4863,0,0,3.5105,3.5071,3.5078,3.5071,3.5049,3.5053,3.5066,3.5061,3.5064,3.5054,3.5064,3.5067,3.5042,3.5038,3.5014,3.5028,3.5078,3.5,3.4999,3.5015,3.5119,3.5139,3.5149,3.5059,3.5061,3.5062,3.5121,0,3.5164,3.5184,3.5154,3.518,3.5185,3.5144,3.5155,3.5144,3.5127,3.5129,3.511,3.5113,3.508,3.5077,3.5088,3.5069,3.5098,3.5065,3.5068,3.5069,3.5073,3.5159,3.5179,3.5236,3.5128,3.5129,3.513,0,3.5236,3.523,3.5257,3.5234,3.5235,3.5246,3.5238,3.5241,3.5227,3.5214,3.5208,3.5181,3.5192,3.5157,3.5172,3.515,3.515,3.5141,3.5142,3.5141,3.5103,3.516,3.5253,3.5262,3.5141,3.514,3.5139,0,3.5308,3.5307,3.5322,3.5318,3.5291,3.53,3.5289,3.5273,3.5272,3.5266,3.5265,3.526,3.5258,3.5255,3.5227,3.5204,3.5246,3.5208,3.5235,3.5236,3.5246,3.5246,3.534,3.5246,3.5246,3.5246,3.5246,0,3.5378,3.5396,3.5354,3.5364,3.5383,3.5349,3.5369,3.5355,3.5341,3.5348,3.5312,3.5319,3.5282,3.5285,3.5263,3.5279,3.5278,3.5268,3.5262,3.5271,3.5273,3.5271,3.5266,3.5248,3.5248,3.5247,3.5247,0,3.5461,3.5434,3.5448,3.5422,3.5416,3.5432,3.5409,3.5418,3.5398,3.5407,3.5407,3.5378,3.5379,3.5351,3.5348,3.5333,3.5359,3.5346,3.5363,3.5359,3.5388,3.5386,3.5484,3.5496,3.5395,3.5396,3.5397,0,3.5507,3.552,3.5495,3.5497,3.5488,3.5491,3.549,3.5457,3.5457,3.5442,3.5453,3.5451,3.5449,3.5453,3.5432,3.5429,3.5415,3.545,3.5415,3.5424,3.5416,3.5415,3.5417,3.5458,3.5459,3.546,3.5461,0,3.5592,3.5578,3.5577,3.5572,3.5571,3.5565,3.5557,3.5561,3.5525,3.5527,3.5528,3.5526,3.5522,3.5522,3.5515,3.5504,3.5477,3.5472,3.5478,3.5488,3.5497,3.5493,3.5384,3.547,3.5469,3.5468,3.5468,3.5468,3.5658,3.5668,3.5652,3.5652,3.5643,3.5636,3.5642,3.5624,3.5625,3.5619,3.56,3.5604,3.559,3.5578,3.557,3.5573,3.5556,3.5565,3.5567,3.557,3.5575,3.5497,3.5572,3.5572,3.5571,3.5571,3.5571,0,3.5741,3.5729,3.573,3.5719,3.572,3.5694,3.5684,3.5686,3.569,3.5679,3.5678,3.5679,3.5679,3.5657,3.5654,3.566,3.5648,3.5661,3.566,3.5658,3.5591,3.5586,3.5671,3.5671,3.5671,3.5671,3.5671,3.5671,3.5784,3.5799,3.5784,3.5794,3.5781,3.5786,3.5782,3.5776,3.5767,3.577,3.577,3.5755,3.574,3.5736,3.5734,3.5728,3.5728,3.5745,3.5735,3.5672,3.5663,3.5653,3.5648,3.5746,3.5746,3.5802,3.5802,3.5803]}]]